[[{"header":{"parameterUnit":"m.s-1","parameterCategory":2,"la1":30.2991,"la2":30.254,"lo1":-89.0895,"lo2":-89.0444,"dy":0.0017,"dx":0.0017,"nx":28,"ny":28,"refTime":"2024-10-09T03:00:00:Z","depth":"0","parameterNumber":2,"parameterNumberName":"U-component_of_CURRENTS"},"data":[0,0,0,0,0,0,0,0,0,0,0,0,0,0,0,0,0,0,0,0,0,0,0,0,0,0,0,0,0,0,0,0,0,0,0,0,0,0,0,0,0,0,0,0,0,0,0,0,0,0,0,0,0,0,0,0,0,0,-0.2571,-0.2572,0,-0.2604,-0.2604,-0.2604,-0.2553,-0.2551,-0.255,-0.2548,-0.2476,-0.2475,-0.2475,0,0,0,0,0,0,0,0,0,0,0,0,0,-0.2534,-0.2535,-0.2571,-0.2572,-0.2572,-0.2604,-0.2604,-0.2604,-0.2553,-0.2551,-0.2549,-0.2548,-0.2476,-0.2476,-0.2475,0,0,0,0,0,0,0,0,0,0,0,0,0,-0.2555,-0.2535,-0.2571,-0.2552,-0.2551,-0.2604,-0.2604,-0.2605,-0.2554,-0.2551,-0.2549,-0.2547,-0.2476,-0.2476,-0.2475,-0.2517,0,0,-0.2473,-0.2472,0,0,0,0,0,0,0,0,-0.2553,-0.2556,-0.2554,-0.2554,-0.2553,-0.2574,-0.2565,-0.2571,-0.2554,-0.255,-0.2548,-0.2546,-0.2502,-0.25,-0.2509,-0.2514,-0.251,-0.2473,-0.2472,-0.2472,-0.2472,0,0,0,0,0,0,0,-0.2552,-0.2554,-0.2581,-0.2555,-0.2554,-0.2567,-0.2566,-0.2567,-0.2535,-0.255,-0.2547,-0.2556,-0.25,-0.251,-0.2506,-0.2509,-0.2473,-0.2472,-0.2472,-0.2471,-0.2534,-0.2536,0,0,0,0,0,0,-0.2552,-0.2553,-0.258,-0.2583,-0.255,-0.257,-0.2569,-0.2568,-0.2537,-0.2532,-0.2558,-0.2553,-0.2512,-0.2507,-0.2503,-0.253,-0.2472,-0.2471,-0.2471,-0.2532,-0.2534,-0.2537,0,0,0,0,0,0,-0.2551,-0.2554,-0.2579,-0.2571,-0.2575,-0.2572,-0.2572,-0.2569,-0.2569,-0.2544,-0.2536,-0.2558,-0.251,-0.2504,-0.2507,-0.2527,-0.2471,-0.247,-0.2529,-0.2533,-0.2535,-0.2596,0,0,0,0,0,0,-0.255,-0.2553,-0.2552,-0.2571,-0.2576,-0.2608,-0.2574,-0.2572,-0.2579,-0.2573,-0.2542,-0.2534,-0.2508,-0.2509,-0.2506,-0.2525,-0.247,-0.2527,-0.2531,-0.2534,-0.2591,-0.2601,-0.2609,0,0,0,0,0,-0.2548,-0.2561,-0.2551,-0.2555,-0.2574,-0.2609,-0.2613,-0.2602,-0.2582,-0.259,-0.2573,-0.2534,-0.2532,-0.251,-0.2507,-0.2525,-0.2525,-0.253,-0.2534,-0.2588,-0.2599,-0.2609,0,0,0,0,0,0,-0.255,-0.2558,-0.2547,-0.2561,-0.2581,-0.2601,-0.2613,-0.2608,-0.2605,-0.2594,-0.256,-0.2552,-0.2562,-0.2547,-0.2523,-0.2559,-0.2523,-0.2527,-0.2565,-0.2575,-0.2584,-0.2583,-0.2469,0,0,0,0,0,-0.2551,-0.2553,-0.2572,-0.2583,-0.2595,-0.2605,-0.2617,-0.2613,-0.2618,-0.2613,-0.2594,-0.2583,-0.2586,-0.258,-0.2577,-0.2599,-0.2561,-0.2612,-0.2621,-0.2628,-0.2629,-0.2607,-0.2613,-0.2552,-0.2552,-0.2552,0,0,-0.2558,-0.2561,-0.2563,-0.2583,-0.2596,-0.2627,-0.2605,-0.263,-0.2653,-0.2607,-0.2623,-0.261,-0.26,-0.2621,-0.2624,-0.2604,-0.2625,-0.2634,-0.264,-0.2637,-0.2612,-0.2618,-0.2623,-0.2555,-0.2555,-0.2554,0,0,-0.2576,-0.2575,-0.2582,-0.2605,-0.2628,-0.2644,-0.2652,-0.2673,-0.2675,-0.27,-0.2675,-0.2677,-0.268,-0.2678,-0.2678,-0.274,-0.2673,-0.274,-0.2779,-0.2758,-0.2762,-0.2765,-0.2711,-0.2709,-0.2742,-0.2743,-0.2743,0,-0.2586,-0.2589,-0.2596,-0.2618,-0.2641,-0.2653,-0.2683,-0.2706,-0.2723,-0.2731,-0.2709,-0.2725,-0.2711,-0.274,-0.276,-0.2757,-0.272,-0.2734,-0.2766,-0.2769,-0.2771,-0.2715,-0.2712,-0.2746,-0.2746,-0.2745,-0.2745,0,-0.261,-0.2618,-0.2634,-0.2659,-0.2691,-0.2721,-0.2757,-0.2782,-0.2786,-0.2797,-0.2819,-0.2809,-0.281,-0.2818,-0.2806,-0.2826,-0.2785,-0.2777,-0.2731,-0.278,-0.2719,-0.2714,-0.2751,-0.275,-0.2749,-0.2748,0,0,-0.2613,-0.2643,-0.2647,-0.2659,-0.2712,-0.2741,-0.2797,-0.2842,-0.2861,-0.2881,-0.289,-0.2921,-0.2899,-0.29,-0.2885,-0.2875,-0.2855,-0.2834,-0.2831,-0.2766,-0.2778,-0.2728,-0.2717,-0.2845,-0.2845,-0.2845,-0.2723,0,-0.2626,-0.2663,-0.2681,-0.2729,-0.2753,-0.2795,-0.2843,-0.2888,-0.2908,-0.292,-0.2928,-0.2929,-0.2938,-0.2921,-0.2923,-0.2863,-0.2848,-0.2887,-0.2754,-0.2749,-0.2687,-0.2713,-0.2582,-0.2461,-0.2718,-0.2717,-0.2717,0,-0.2636,-0.2655,-0.2699,-0.2747,-0.2763,-0.2799,-0.2865,-0.2909,-0.2949,-0.2957,-0.2973,-0.2958,-0.2958,-0.2943,-0.2892,-0.291,-0.2857,-0.2813,-0.2807,-0.2736,-0.2692,-0.2459,-0.2442,-0.2421,-0.2709,-0.2709,-0.271,0,-0.262,-0.2667,-0.2696,-0.2718,-0.2783,-0.281,-0.2849,-0.2909,-0.2929,-0.2961,-0.2943,-0.2966,-0.2927,-0.2902,-0.284,-0.2851,-0.2752,-0.2751,-0.2659,-0.2653,-0.2504,-0.2485,-0.2437,-0.2715,-0.2715,-0.2716,-0.2716,0,-0.2621,-0.2635,-0.2684,-0.2702,-0.2729,-0.2791,-0.2825,-0.2869,-0.2902,-0.2892,-0.2941,-0.2906,-0.2912,-0.286,-0.2824,-0.2722,-0.2742,-0.2661,-0.2625,-0.2522,-0.2507,-0.2452,-0.2476,-0.2711,-0.2712,-0.2713,-0.2714,0,-0.2576,-0.2618,-0.2644,-0.2706,-0.2716,-0.2735,-0.2783,-0.2794,-0.2846,-0.2821,-0.2818,-0.2833,-0.2776,-0.2772,-0.2699,-0.2668,-0.254,-0.2558,-0.2426,-0.2379,-0.2282,-0.2315,-0.222,-0.2161,-0.2423,-0.2421,-0.242,0,-0.2534,-0.2548,-0.262,-0.262,-0.2633,-0.2666,-0.2671,-0.2747,-0.2738,-0.2754,-0.2705,-0.2682,-0.263,-0.2536,-0.2492,-0.2422,-0.2436,-0.2263,-0.2285,-0.2259,-0.2268,-0.2294,-0.2254,-0.2093,-0.2089,-0.2086,-0.2083,0,-0.243,-0.2478,-0.2506,-0.2524,-0.2526,-0.2532,-0.2536,-0.252,-0.2577,-0.2559,-0.2502,-0.2472,-0.2417,-0.2303,-0.2258,-0.2202,-0.2202,-0.2192,-0.2191,-0.2036,-0.203,-0.196,-0.2183,-0.2053,-0.2056,-0.2058,-0.206,-0.2061,-0.2322,-0.2329,-0.2378,-0.2386,-0.239,-0.2346,-0.2285,-0.2298,-0.2259,-0.2185,-0.226,-0.2185,-0.2152,-0.2071,-0.2021,-0.1902,-0.1985,-0.184,-0.1883,-0.1914,-0.1863,-0.2023,-0.1854,-0.1856,-0.1857,-0.1858,-0.186,0,-0.2147,-0.219,-0.2213,-0.2205,-0.2144,-0.2202,-0.214,-0.2048,-0.1936,-0.1962,-0.1919,-0.189,-0.178,-0.1777,-0.1687,-0.1613,-0.1581,-0.1583,-0.158,-0.1556,-0.1689,-0.1683,-0.1436,-0.1436,-0.1436,-0.1436,-0.1436,-0.1436,-0.2054,-0.2023,-0.207,-0.1941,-0.1924,-0.1764,-0.1687,-0.1602,-0.1576,-0.1499,-0.1516,-0.1587,-0.1603,-0.1668,-0.1547,-0.1468,-0.1448,-0.1389,-0.1456,-0.1553,-0.158,-0.1607,-0.1606,-0.1348,-0.1348,-0.1233,-0.1233,-0.1232]},{"header":{"parameterUnit":"m.s-1","parameterCategory":2,"la1":30.2991,"la2":30.254,"lo1":-89.0895,"lo2":-89.0444,"dy":0.0017,"dx":0.0017,"nx":28,"ny":28,"refTime":"2024-10-09T03:00:00:Z","depth":"0","parameterNumber":3,"parameterNumberName":"V-component_of_CURRENTS"},"data":[0,0,0,0,0,0,0,0,0,0,0,0,0,0,0,0,0,0,0,0,0,0,0,0,0,0,0,0,0,0,0,0,0,0,0,0,0,0,0,0,0,0,0,0,0,0,0,0,0,0,0,0,0,0,0,0,0,0,-0.0465,-0.0464,0,-0.0376,-0.0375,-0.0374,-0.0315,-0.0315,-0.0314,-0.0314,-0.021,-0.0208,-0.0206,0,0,0,0,0,0,0,0,0,0,0,0,0,-0.0557,-0.0555,-0.0465,-0.0464,-0.0462,-0.0376,-0.0375,-0.0374,-0.0315,-0.0315,-0.0314,-0.0314,-0.0211,-0.0208,-0.0205,0,0,0,0,0,0,0,0,0,0,0,0,0,-0.0497,-0.0555,-0.0465,-0.0423,-0.0418,-0.0376,-0.0375,-0.0373,-0.0315,-0.0315,-0.0314,-0.0313,-0.0212,-0.0208,-0.0205,-0.0195,0,0,-0.0194,-0.0192,0,0,0,0,0,0,0,0,-0.0501,-0.0494,-0.043,-0.0426,-0.042,-0.0356,-0.0369,-0.0313,-0.0315,-0.0354,-0.0314,-0.0313,-0.0258,-0.0251,-0.0236,-0.019,-0.0186,-0.0194,-0.0192,-0.019,-0.0189,0,0,0,0,0,0,0,-0.0505,-0.0497,-0.043,-0.0429,-0.0423,-0.0399,-0.039,-0.0358,-0.031,-0.0351,-0.0346,-0.0337,-0.0255,-0.0239,-0.0233,-0.0184,-0.0194,-0.0191,-0.0188,-0.0187,-0.01,-0.01,0,0,0,0,0,0,-0.0518,-0.0501,-0.0432,-0.0427,-0.046,-0.0398,-0.0388,-0.0377,-0.0311,-0.03,-0.0337,-0.0334,-0.0246,-0.0237,-0.0229,-0.0204,-0.019,-0.0187,-0.0185,-0.01,-0.01,-0.01,0,0,0,0,0,0,-0.052,-0.0512,-0.0436,-0.0462,-0.0451,-0.0397,-0.0385,-0.0376,-0.036,-0.0301,-0.029,-0.0331,-0.0245,-0.0234,-0.0198,-0.02,-0.0185,-0.0182,-0.0101,-0.01,-0.01,-0.0161,0,0,0,0,0,0,-0.0523,-0.0514,-0.0514,-0.0463,-0.045,-0.0419,-0.0386,-0.0375,-0.0354,-0.035,-0.0292,-0.0281,-0.0243,-0.0203,-0.0194,-0.0195,-0.0179,-0.0101,-0.0101,-0.01,-0.0159,-0.0162,-0.0166,0,0,0,0,0,-0.0527,-0.0532,-0.0514,-0.0506,-0.045,-0.0419,-0.0411,-0.0371,-0.0355,-0.0353,-0.0308,-0.0283,-0.0195,-0.02,-0.019,-0.0189,-0.0101,-0.0101,-0.01,-0.0157,-0.0162,-0.0165,0,0,0,0,0,0,-0.0589,-0.0525,-0.0505,-0.0495,-0.0463,-0.041,-0.0406,-0.0378,-0.0341,-0.0337,-0.0282,-0.0268,-0.0237,-0.0205,-0.0213,-0.0162,-0.0143,-0.0141,-0.019,-0.0194,-0.0197,-0.0219,-0.0176,0,0,0,0,0,-0.0599,-0.0577,-0.0525,-0.0521,-0.0506,-0.0458,-0.0442,-0.0414,-0.0374,-0.0357,-0.0315,-0.0268,-0.0227,-0.0205,-0.0167,-0.0142,-0.01,-0.0134,-0.0137,-0.0141,-0.015,-0.0079,-0.0077,-0.0099,-0.0099,-0.0099,0,0,-0.0627,-0.0587,-0.0578,-0.0531,-0.0504,-0.0491,-0.0447,-0.0429,-0.0417,-0.0352,-0.0329,-0.0281,-0.0223,-0.0192,-0.0175,-0.0166,-0.0112,-0.014,-0.0143,-0.0151,-0.0078,-0.0076,-0.0074,-0.0099,-0.0099,-0.0099,0,0,-0.0669,-0.0634,-0.0628,-0.06,-0.0556,-0.0524,-0.0522,-0.0471,-0.0447,-0.0416,-0.0363,-0.0316,-0.0262,-0.0214,-0.0184,-0.0183,-0.0133,-0.0174,-0.0207,-0.0138,-0.0136,-0.0133,-0.008,-0.0073,-0.0174,-0.0175,-0.0175,0,-0.0716,-0.0688,-0.0629,-0.0617,-0.0603,-0.0544,-0.0549,-0.0515,-0.0459,-0.0436,-0.0419,-0.0316,-0.027,-0.0216,-0.0218,-0.0191,-0.0151,-0.0199,-0.0143,-0.014,-0.0136,-0.0082,-0.0073,-0.0177,-0.0177,-0.0177,-0.0177,0,-0.0743,-0.0727,-0.0727,-0.0685,-0.0664,-0.066,-0.0605,-0.0582,-0.0545,-0.05,-0.0442,-0.037,-0.0306,-0.0284,-0.0253,-0.0205,-0.0185,-0.0157,-0.0137,-0.0138,-0.0081,-0.007,-0.0182,-0.018,-0.018,-0.0179,0,0,-0.0844,-0.0765,-0.0767,-0.0758,-0.07,-0.0692,-0.0667,-0.0625,-0.06,-0.054,-0.05,-0.0427,-0.0376,-0.0339,-0.0282,-0.0228,-0.0169,-0.0195,-0.0189,-0.015,-0.0028,0.0009,0.0025,-0.0132,-0.0131,-0.013,-0.0001,0,-0.0895,-0.0891,-0.083,-0.084,-0.0838,-0.077,-0.0751,-0.07,-0.0638,-0.0581,-0.0493,-0.0436,-0.0399,-0.0364,-0.0304,-0.0196,-0.0144,-0.0208,-0.0027,-0.0022,0.0006,0.0038,0.0066,0.0185,0.001,0.0012,0.0013,0,-0.0944,-0.0928,-0.0944,-0.0903,-0.0898,-0.0893,-0.0843,-0.0816,-0.0711,-0.0656,-0.0572,-0.0494,-0.0402,-0.0371,-0.0199,-0.0243,-0.0152,-0.0073,-0.0065,-0.0003,0.0036,0.016,0.0212,0.0351,0.0031,0.0029,0.0028,0,-0.1042,-0.1013,-0.103,-0.1018,-0.0961,-0.0957,-0.0933,-0.0844,-0.0812,-0.0699,-0.0646,-0.0524,-0.0447,-0.0324,-0.0165,-0.0179,0.0028,0.004,0.0159,0.0162,0.0234,0.0242,0.0436,0.0154,0.0153,0.0153,0.0153,0,-0.112,-0.1129,-0.1077,-0.1089,-0.1105,-0.104,-0.1035,-0.0976,-0.0883,-0.0827,-0.0696,-0.0616,-0.0432,-0.0288,-0.0163,0.0038,0.0038,0.0159,0.0205,0.0214,0.0217,0.0381,0.0423,0.0158,0.0157,0.0156,0.0155,0,-0.1214,-0.1181,-0.1196,-0.1159,-0.1149,-0.1166,-0.1115,-0.1095,-0.0991,-0.0908,-0.0875,-0.0677,-0.0478,-0.0289,-0.0062,0.0053,0.0319,0.0294,0.0283,0.0325,0.055,0.0586,0.0805,0.088,0.0446,0.0448,0.045,0,-0.1251,-0.1268,-0.1264,-0.1279,-0.1264,-0.1265,-0.1256,-0.1167,-0.1121,-0.0938,-0.0893,-0.0685,-0.0512,-0.0161,0.0075,0.0321,0.0413,0.0482,0.0462,0.0578,0.0652,0.0672,0.0719,0.0536,0.0538,0.054,0.0541,0,-0.1312,-0.1317,-0.1332,-0.1372,-0.138,-0.1375,-0.1342,-0.1315,-0.1181,-0.1081,-0.09,-0.0754,-0.0397,-0.0086,0.0237,0.0381,0.0582,0.0525,0.0667,0.0756,0.0771,0.0859,0.0421,0.0557,0.0555,0.0554,0.0553,0.0553,-0.1344,-0.1383,-0.1409,-0.1446,-0.1463,-0.1445,-0.1414,-0.1348,-0.1256,-0.1048,-0.0924,-0.0654,-0.0221,0.0249,0.0413,0.0773,0.0726,0.0875,0.0914,0.0928,0.099,0.057,0.0741,0.0741,0.074,0.074,0.074,0,-0.1362,-0.1408,-0.1467,-0.1494,-0.1515,-0.1504,-0.1433,-0.1355,-0.1223,-0.1037,-0.0845,-0.0345,0.0079,0.0469,0.0963,0.1154,0.1185,0.1248,0.1292,0.1325,0.0991,0.0984,0.119,0.119,0.1189,0.1189,0.1189,0.1189,-0.1368,-0.1426,-0.1469,-0.1513,-0.1527,-0.1481,-0.1423,-0.1293,-0.1131,-0.0794,-0.0499,-0.0276,0.0275,0.1037,0.1482,0.1522,0.167,0.1655,0.1735,0.1509,0.1477,0.1446,0.1454,0.1754,0.1755,0.2059,0.2062,0.2065]}],[{"header":{"parameterUnit":"m.s-1","parameterCategory":2,"la1":30.2991,"la2":30.254,"lo1":-89.0895,"lo2":-89.0444,"dy":0.0017,"dx":0.0017,"nx":28,"ny":28,"refTime":"2024-10-09T03:00:00:Z","depth":"2","parameterNumber":2,"parameterNumberName":"U-component_of_CURRENTS"},"data":[0,0,0,0,0,0,0,0,0,0,0,0,0,0,0,0,0,0,0,0,0,0,0,0,0,0,0,0,0,0,0,0,0,0,0,0,0,0,0,0,0,0,0,0,0,0,0,0,0,0,0,0,0,0,0,0,0,0,-0.2089,-0.2089,0,-0.2136,-0.2137,-0.2137,-0.2139,-0.2139,-0.2138,-0.2138,-0.2106,-0.2106,-0.2105,0,0,0,0,0,0,0,0,0,0,0,0,0,-0.2085,-0.2085,-0.2089,-0.2089,-0.209,-0.2136,-0.2137,-0.2137,-0.214,-0.2139,-0.2138,-0.2137,-0.2106,-0.2106,-0.2105,0,0,0,0,0,0,0,0,0,0,0,0,0,-0.2106,-0.2085,-0.2089,-0.2096,-0.2097,-0.2136,-0.2137,-0.2138,-0.214,-0.2139,-0.2138,-0.2137,-0.2106,-0.2106,-0.2105,-0.2122,0,0,-0.2104,-0.2104,0,0,0,0,0,0,0,0,-0.2105,-0.2106,-0.2094,-0.2095,-0.2097,-0.213,-0.2124,-0.2128,-0.214,-0.2124,-0.2137,-0.2136,-0.2107,-0.2106,-0.212,-0.2121,-0.212,-0.2104,-0.2104,-0.2104,-0.2104,0,0,0,0,0,0,0,-0.2103,-0.2105,-0.2108,-0.2095,-0.2096,-0.2126,-0.2127,-0.2126,-0.212,-0.2126,-0.2126,-0.213,-0.2107,-0.212,-0.2119,-0.2119,-0.2104,-0.2104,-0.2104,-0.2104,-0.2171,-0.2173,0,0,0,0,0,0,-0.2092,-0.2103,-0.2107,-0.211,-0.2097,-0.2126,-0.2128,-0.2121,-0.2121,-0.2121,-0.2131,-0.213,-0.2121,-0.2119,-0.2118,-0.217,-0.2104,-0.2104,-0.2103,-0.2169,-0.2171,-0.2173,0,0,0,0,0,0,-0.2092,-0.2091,-0.2105,-0.2107,-0.2111,-0.2126,-0.212,-0.2122,-0.2139,-0.2126,-0.2124,-0.2144,-0.212,-0.2118,-0.2124,-0.2167,-0.2103,-0.2103,-0.2166,-0.2169,-0.2172,-0.2254,0,0,0,0,0,0,-0.2091,-0.2091,-0.2092,-0.2106,-0.211,-0.2133,-0.2121,-0.2124,-0.2142,-0.2142,-0.2137,-0.2133,-0.212,-0.2124,-0.2123,-0.2166,-0.2103,-0.2164,-0.2168,-0.2171,-0.2249,-0.226,-0.2269,0,0,0,0,0,-0.2091,-0.2092,-0.2092,-0.2093,-0.2108,-0.2134,-0.214,-0.2149,-0.2144,-0.2159,-0.2154,-0.2133,-0.2148,-0.2125,-0.2124,-0.2167,-0.2162,-0.2167,-0.2171,-0.2244,-0.2257,-0.2268,0,0,0,0,0,0,-0.208,-0.2093,-0.2093,-0.2094,-0.2116,-0.2134,-0.2151,-0.2156,-0.2168,-0.2166,-0.2148,-0.2145,-0.2172,-0.2157,-0.2132,-0.22,-0.2157,-0.2161,-0.2213,-0.2225,-0.2235,-0.2219,-0.2102,0,0,0,0,0,-0.2081,-0.2092,-0.2105,-0.2109,-0.2121,-0.2139,-0.2153,-0.2162,-0.217,-0.2175,-0.2176,-0.2179,-0.2192,-0.2195,-0.2202,-0.2228,-0.219,-0.226,-0.227,-0.2278,-0.2266,-0.2246,-0.2252,-0.2188,-0.2188,-0.2188,0,0,-0.208,-0.2086,-0.2094,-0.211,-0.2127,-0.2156,-0.2146,-0.2173,-0.2202,-0.2169,-0.2208,-0.2211,-0.2207,-0.2245,-0.2256,-0.2234,-0.2281,-0.2284,-0.2291,-0.2274,-0.2251,-0.2257,-0.2262,-0.2191,-0.2191,-0.219,0,0,-0.2085,-0.2089,-0.2104,-0.2129,-0.2158,-0.2175,-0.2183,-0.2213,-0.2233,-0.2267,-0.226,-0.2276,-0.23,-0.2307,-0.2312,-0.2377,-0.2334,-0.2398,-0.2434,-0.2416,-0.242,-0.2424,-0.2394,-0.2394,-0.2403,-0.2403,-0.2403,0,-0.2083,-0.2097,-0.2114,-0.2139,-0.2164,-0.2184,-0.2213,-0.2244,-0.2274,-0.2293,-0.2287,-0.2335,-0.2328,-0.2369,-0.2398,-0.2398,-0.2376,-0.2389,-0.2427,-0.2429,-0.2431,-0.2399,-0.2398,-0.2408,-0.2407,-0.2407,-0.2406,0,-0.2115,-0.2123,-0.2137,-0.2176,-0.2207,-0.2237,-0.2279,-0.2317,-0.2342,-0.2365,-0.2415,-0.2417,-0.2435,-0.2458,-0.2445,-0.2478,-0.2455,-0.244,-0.239,-0.2442,-0.2406,-0.2403,-0.2414,-0.2413,-0.2411,-0.241,0,0,-0.2123,-0.2149,-0.2164,-0.2174,-0.2231,-0.2258,-0.2319,-0.2372,-0.2401,-0.245,-0.2482,-0.2528,-0.2524,-0.2529,-0.253,-0.2522,-0.2522,-0.2493,-0.249,-0.2453,-0.2477,-0.2421,-0.2412,-0.2517,-0.2517,-0.2517,-0.245,0,-0.2144,-0.2169,-0.2204,-0.225,-0.2254,-0.2312,-0.2364,-0.2419,-0.2453,-0.249,-0.252,-0.2545,-0.2556,-0.2561,-0.2565,-0.2525,-0.2517,-0.2541,-0.2441,-0.2437,-0.2372,-0.2408,-0.2219,-0.2141,-0.2447,-0.2446,-0.2446,0,-0.2178,-0.2177,-0.2201,-0.2248,-0.2269,-0.2316,-0.2393,-0.2446,-0.2506,-0.2528,-0.2566,-0.2575,-0.2595,-0.2581,-0.2554,-0.2571,-0.253,-0.25,-0.2496,-0.2406,-0.2376,-0.2138,-0.2123,-0.244,-0.244,-0.2441,-0.2441,0,-0.2162,-0.2197,-0.2205,-0.2224,-0.2275,-0.2321,-0.2381,-0.2449,-0.2483,-0.2538,-0.2543,-0.2585,-0.2578,-0.2561,-0.2523,-0.2532,-0.2467,-0.2464,-0.2379,-0.2374,-0.2171,-0.2149,-0.243,-0.243,-0.243,-0.243,-0.2431,0,-0.2173,-0.2176,-0.2188,-0.2205,-0.223,-0.2295,-0.2352,-0.2415,-0.247,-0.2486,-0.255,-0.2546,-0.2569,-0.2546,-0.2518,-0.2439,-0.2464,-0.2378,-0.2353,-0.2198,-0.218,-0.2403,-0.2401,-0.2428,-0.2428,-0.2429,-0.2429,0,-0.2137,-0.2143,-0.2141,-0.2195,-0.2212,-0.2235,-0.233,-0.2354,-0.2423,-0.2437,-0.2451,-0.2499,-0.2473,-0.2486,-0.2434,-0.2406,-0.2349,-0.2313,-0.2131,-0.2087,-0.2268,-0.2271,-0.2204,-0.2202,-0.22,-0.2198,-0.2196,0,-0.2118,-0.2102,-0.2133,-0.2123,-0.2144,-0.2184,-0.2208,-0.2307,-0.2322,-0.2391,-0.2376,-0.2389,-0.2358,-0.2296,-0.2249,-0.219,-0.2271,-0.1989,-0.1975,-0.2262,-0.2245,-0.2251,-0.2257,-0.1737,-0.1732,-0.1728,-0.1725,0,-0.2062,-0.2068,-0.2081,-0.2053,-0.2061,-0.207,-0.212,-0.212,-0.2212,-0.222,-0.2212,-0.2199,-0.2168,-0.2029,-0.1988,-0.1931,-0.1992,-0.1902,-0.2222,-0.1842,-0.1821,-0.1805,-0.1826,-0.1687,-0.1691,-0.1694,-0.1696,-0.1697,-0.2017,-0.2009,-0.2009,-0.1972,-0.1973,-0.1933,-0.1905,-0.1946,-0.1937,-0.1919,-0.1995,-0.192,-0.1912,-0.175,-0.1668,-0.1619,-0.1759,-0.1675,-0.1687,-0.1705,-0.1681,-0.1659,-0.1489,-0.1492,-0.1494,-0.1496,-0.1497,0,-0.1923,-0.1918,-0.1918,-0.1862,-0.1804,-0.1834,-0.1811,-0.1746,-0.1677,-0.1698,-0.1673,-0.1501,-0.1406,-0.1422,-0.1284,-0.1266,-0.1249,-0.1213,-0.1185,-0.1222,-0.1255,-0.1209,-0.0891,-0.089,-0.0888,-0.0887,0,0,-0.1865,-0.1807,-0.1806,-0.1668,-0.1641,-0.1501,-0.1451,-0.1387,-0.1363,-0.1274,-0.1236,-0.1322,-0.1363,-0.1126,-0.1071,-0.096,-0.108,-0.0908,-0.1389,-0.1391,-0.1422,-0.1511,-0.1481,0,0,0,0,0]},{"header":{"parameterUnit":"m.s-1","parameterCategory":2,"la1":30.2991,"la2":30.254,"lo1":-89.0895,"lo2":-89.0444,"dy":0.0017,"dx":0.0017,"nx":28,"ny":28,"refTime":"2024-10-09T03:00:00:Z","depth":"2","parameterNumber":3,"parameterNumberName":"V-component_of_CURRENTS"},"data":[0,0,0,0,0,0,0,0,0,0,0,0,0,0,0,0,0,0,0,0,0,0,0,0,0,0,0,0,0,0,0,0,0,0,0,0,0,0,0,0,0,0,0,0,0,0,0,0,0,0,0,0,0,0,0,0,0,0,-0.0097,-0.0097,0,-0.0037,-0.0036,-0.0035,-0.0006,-0.0006,-0.0006,-0.0006,0.0079,0.0081,0.0084,0,0,0,0,0,0,0,0,0,0,0,0,0,-0.0148,-0.0148,-0.0097,-0.0096,-0.0096,-0.0037,-0.0036,-0.0035,-0.0006,-0.0006,-0.0006,-0.0006,0.0078,0.0081,0.0084,0,0,0,0,0,0,0,0,0,0,0,0,0,-0.0111,-0.0147,-0.0097,-0.0074,-0.0071,-0.0037,-0.0036,-0.0035,-0.0006,-0.0006,-0.0006,-0.0006,0.0078,0.0081,0.0084,0.0105,0,0,0.0095,0.0096,0,0,0,0,0,0,0,0,-0.0113,-0.0109,-0.0078,-0.0075,-0.0072,-0.0029,-0.0023,0.0013,-0.0006,-0.0031,-0.0006,-0.0006,0.0046,0.0052,0.0062,0.0109,0.0112,0.0095,0.0097,0.0098,0.0099,0,0,0,0,0,0,0,-0.0116,-0.0112,-0.0074,-0.0077,-0.0074,-0.0053,-0.0048,-0.0016,0.0006,-0.0029,-0.0027,-0.002,0.0047,0.0059,0.0064,0.0114,0.0095,0.0098,0.01,0.0101,0.0181,0.0182,0,0,0,0,0,0,-0.0125,-0.0114,-0.0076,-0.0072,-0.0093,-0.0052,-0.0046,-0.0043,0.0006,0.0013,-0.002,-0.0018,0.0053,0.006,0.0068,0.0081,0.0098,0.0102,0.0103,0.0181,0.0181,0.0182,0,0,0,0,0,0,-0.0126,-0.0122,-0.0078,-0.0091,-0.0084,-0.0051,-0.0048,-0.0042,-0.0034,0.0013,0.002,-0.0019,0.0053,0.0063,0.0096,0.0085,0.0103,0.0106,0.0181,0.0181,0.0182,0.0117,0,0,0,0,0,0,-0.0128,-0.0123,-0.0128,-0.0092,-0.0084,-0.0066,-0.0047,-0.0041,-0.0029,-0.0027,0.0016,0.0025,0.0054,0.009,0.0099,0.009,0.0109,0.0181,0.0181,0.0181,0.0119,0.0115,0.0112,0,0,0,0,0,-0.013,-0.0137,-0.0128,-0.0124,-0.009,-0.0066,-0.006,-0.0037,-0.003,-0.003,0.0004,0.0023,0.0098,0.0093,0.0104,0.0095,0.0181,0.0181,0.0181,0.0121,0.0116,0.0112,0,0,0,0,0,0,-0.0149,-0.0133,-0.0124,-0.0122,-0.0099,-0.0061,-0.0061,-0.0042,-0.0016,-0.0017,0.0028,0.0039,0.0061,0.0092,0.0086,0.012,0.0141,0.0143,0.0091,0.0087,0.0083,0.0072,0.0112,0,0,0,0,0,-0.0159,-0.0169,-0.0137,-0.0136,-0.013,-0.0097,-0.0086,-0.007,-0.0039,-0.0029,0.0003,0.0039,0.0071,0.0089,0.012,0.0143,0.0179,0.0144,0.014,0.0137,0.0135,0.019,0.0191,0.0182,0.0182,0.0182,0,0,-0.0168,-0.0158,-0.0164,-0.0143,-0.0127,-0.0124,-0.0091,-0.0081,-0.0076,-0.0023,-0.0011,0.0025,0.0074,0.0095,0.0108,0.012,0.0157,0.0137,0.0133,0.0134,0.0191,0.0191,0.0192,0.0182,0.0182,0.0182,0,0,-0.0194,-0.0182,-0.0203,-0.0191,-0.0172,-0.0149,-0.0149,-0.0116,-0.0102,-0.008,-0.0043,-0.0006,0.0036,0.0074,0.0098,0.0096,0.0132,0.0097,0.0071,0.0124,0.0125,0.0127,0.0162,0.0167,0.0098,0.0098,0.0098,0,-0.0205,-0.0225,-0.0201,-0.0213,-0.0212,-0.0165,-0.018,-0.0153,-0.0113,-0.0099,-0.0087,-0.0013,0.0028,0.0067,0.0064,0.0087,0.0114,0.0081,0.0118,0.0121,0.0123,0.016,0.0166,0.0095,0.0095,0.0095,0.0096,0,-0.024,-0.0262,-0.0271,-0.0276,-0.0265,-0.0271,-0.0233,-0.0218,-0.0194,-0.0161,-0.0123,-0.0061,-0.0015,0.0001,0.0032,0.0066,0.0078,0.0103,0.0125,0.012,0.0159,0.0167,0.009,0.0091,0.0092,0.0093,0,0,-0.0265,-0.0294,-0.0301,-0.0329,-0.0305,-0.0306,-0.029,-0.0263,-0.0252,-0.0205,-0.0185,-0.0122,-0.0083,-0.0053,-0.0006,0.0043,0.0084,0.0072,0.0076,0.0099,0.0185,0.0216,0.0228,0.011,0.0111,0.0112,0.02,0,-0.0307,-0.0355,-0.0351,-0.0401,-0.0425,-0.0388,-0.0378,-0.0342,-0.0295,-0.0259,-0.0185,-0.0147,-0.0105,-0.0084,-0.0029,0.0058,0.0103,0.0057,0.0195,0.0199,0.0221,0.0238,0.0211,0.0289,0.0208,0.021,0.0211,0,-0.0343,-0.0381,-0.0431,-0.048,-0.0487,-0.05,-0.0479,-0.0463,-0.0384,-0.0345,-0.0281,-0.0217,-0.0139,-0.0103,0.004,0.0004,0.0084,0.0153,0.0159,0.0217,0.0245,0.0286,0.0307,0.0225,0.0223,0.0222,0.0222,0,-0.0383,-0.0442,-0.049,-0.0503,-0.053,-0.055,-0.0556,-0.0492,-0.0477,-0.0394,-0.0364,-0.0261,-0.0205,-0.0094,0.0052,0.0043,0.0212,0.0224,0.0326,0.0328,0.0349,0.0351,0.0322,0.0322,0.0322,0.0322,0.0322,0,-0.0431,-0.0471,-0.052,-0.0562,-0.0623,-0.061,-0.064,-0.0614,-0.0557,-0.053,-0.0419,-0.0364,-0.0199,-0.0078,0.004,0.0212,0.0208,0.0327,0.036,0.0325,0.0324,0.0305,0.0302,0.0325,0.0324,0.0324,0.0323,0,-0.0458,-0.0475,-0.0559,-0.0631,-0.0652,-0.0695,-0.0728,-0.0729,-0.066,-0.0617,-0.0595,-0.0437,-0.0273,-0.0103,0.0097,0.0203,0.0359,0.0418,0.0359,0.0384,0.0436,0.0428,0.0534,0.0536,0.0537,0.0539,0.054,0,-0.0487,-0.0531,-0.0636,-0.0691,-0.0734,-0.0789,-0.0818,-0.0787,-0.0772,-0.0654,-0.0633,-0.0465,-0.0323,-0.0019,0.0191,0.0409,0.041,0.0508,0.0497,0.0439,0.0461,0.045,0.0441,0.0492,0.0493,0.0494,0.0494,0,-0.0572,-0.0593,-0.0668,-0.078,-0.0845,-0.0897,-0.0936,-0.0932,-0.0859,-0.0792,-0.0663,-0.054,-0.0243,0.0012,0.0295,0.0417,0.047,0.0527,0.0502,0.0442,0.0408,0.0426,0.0417,0.0499,0.0499,0.0498,0.0498,0.0498,-0.0642,-0.0713,-0.0802,-0.0885,-0.0956,-0.0988,-0.1003,-0.0988,-0.094,-0.0798,-0.0693,-0.0469,-0.0237,0.0182,0.0368,0.0542,0.0542,0.0589,0.0584,0.0579,0.0557,0.0528,0.0637,0.0637,0.0638,0.0638,0.0638,0,-0.0749,-0.0794,-0.0904,-0.0995,-0.1057,-0.1062,-0.1063,-0.1018,-0.0935,-0.0786,-0.0632,-0.0349,-0.0066,0.0171,0.0453,0.0618,0.0593,0.0638,0.0573,0.0568,0.0563,0.0537,0.0614,0.0614,0.0614,0.0615,0,0,-0.08,-0.0886,-0.0926,-0.1042,-0.1103,-0.1122,-0.1102,-0.1003,-0.0878,-0.0694,-0.0523,-0.0317,-0.0036,0.0156,0.0353,0.0495,0.0487,0.0504,0.0509,0.0404,0.0397,0.0523,0.0477,0,0,0,0,0]}],[{"header":{"parameterUnit":"m.s-1","parameterCategory":2,"la1":30.2991,"la2":30.254,"lo1":-89.0895,"lo2":-89.0444,"dy":0.0017,"dx":0.0017,"nx":28,"ny":28,"refTime":"2024-10-09T03:00:00:Z","depth":"4","parameterNumber":2,"parameterNumberName":"U-component_of_CURRENTS"},"data":[0,0,0,0,0,0,0,0,0,0,0,0,0,0,0,0,0,0,0,0,0,0,0,0,0,0,0,0,0,0,0,0,0,0,0,0,0,0,0,0,0,0,0,0,0,0,0,0,0,0,0,0,0,0,0,0,0,0,-0.1237,-0.1238,0,-0.1281,-0.1281,-0.1281,-0.1313,-0.1314,-0.1314,-0.1315,-0.1354,-0.1354,-0.1354,0,0,0,0,0,0,0,0,0,0,0,0,0,-0.1133,-0.1134,-0.1237,-0.1238,-0.1239,-0.1281,-0.1281,-0.1281,-0.1313,-0.1314,-0.1315,-0.1315,-0.1353,-0.1354,-0.1354,0,0,0,0,0,0,0,0,0,0,0,0,0,-0.1174,-0.1135,-0.1237,-0.1263,-0.1266,-0.1281,-0.1281,-0.1281,-0.1313,-0.1314,-0.1315,-0.1316,-0.1353,-0.1354,-0.1354,-0.1339,0,0,-0.1356,-0.1357,0,0,0,0,0,0,0,0,-0.1171,-0.1177,-0.1258,-0.1261,-0.1265,-0.1296,-0.1259,-0.1302,-0.1313,-0.1291,-0.1315,-0.1316,-0.1336,-0.1338,-0.1338,-0.1341,-0.1343,-0.1356,-0.1357,-0.1357,-0.1357,0,0,0,0,0,0,0,-0.1168,-0.1175,-0.125,-0.1259,-0.1263,-0.1256,-0.1263,-0.1266,-0.1304,-0.1293,-0.1296,-0.1307,-0.1337,-0.1338,-0.1339,-0.1343,-0.1356,-0.1357,-0.1357,-0.1358,-0.1413,-0.1415,0,0,0,0,0,0,-0.1173,-0.1173,-0.1249,-0.1252,-0.1224,-0.1257,-0.1265,-0.1282,-0.1304,-0.131,-0.1306,-0.1309,-0.1336,-0.1339,-0.1341,-0.1406,-0.1357,-0.1358,-0.1358,-0.1412,-0.1414,-0.1415,0,0,0,0,0,0,-0.1171,-0.118,-0.1247,-0.1216,-0.1225,-0.1259,-0.1277,-0.1282,-0.1307,-0.1315,-0.132,-0.133,-0.1337,-0.134,-0.137,-0.1405,-0.1358,-0.1359,-0.1411,-0.1413,-0.1414,-0.1485,0,0,0,0,0,0,-0.1167,-0.1178,-0.1194,-0.1217,-0.1227,-0.1273,-0.1277,-0.1283,-0.1313,-0.1317,-0.1337,-0.134,-0.1338,-0.1369,-0.137,-0.1405,-0.1359,-0.141,-0.1412,-0.1414,-0.1481,-0.1488,-0.1495,0,0,0,0,0,-0.1164,-0.1179,-0.1194,-0.1204,-0.1247,-0.1274,-0.1278,-0.1302,-0.1314,-0.1327,-0.1346,-0.134,-0.1383,-0.137,-0.1372,-0.1408,-0.1409,-0.1411,-0.1414,-0.1478,-0.1487,-0.1495,0,0,0,0,0,0,-0.113,-0.1185,-0.1202,-0.1231,-0.126,-0.1281,-0.1296,-0.1314,-0.1337,-0.1347,-0.1352,-0.1356,-0.1397,-0.1387,-0.1373,-0.1429,-0.1396,-0.1399,-0.1444,-0.1453,-0.146,-0.1454,-0.136,0,0,0,0,0,-0.1133,-0.1169,-0.1207,-0.1231,-0.1248,-0.1275,-0.1291,-0.1312,-0.1336,-0.1348,-0.1365,-0.1382,-0.1403,-0.1417,-0.1428,-0.1454,-0.1449,-0.1478,-0.1485,-0.1491,-0.1487,-0.1522,-0.1532,-0.1423,-0.1423,-0.1423,0,0,-0.1125,-0.1162,-0.118,-0.1228,-0.125,-0.1279,-0.1287,-0.1321,-0.1352,-0.1347,-0.1393,-0.1408,-0.1415,-0.1452,-0.1469,-0.1452,-0.1519,-0.1494,-0.15,-0.1492,-0.1526,-0.1536,-0.1546,-0.1425,-0.1424,-0.1424,0,0,-0.1124,-0.1161,-0.119,-0.1223,-0.1272,-0.129,-0.1307,-0.1346,-0.1373,-0.1413,-0.1426,-0.1461,-0.1485,-0.1505,-0.1515,-0.1564,-0.1555,-0.1572,-0.1606,-0.1641,-0.165,-0.1659,-0.1665,-0.1673,-0.1576,-0.1577,-0.1577,0,-0.1112,-0.1159,-0.1198,-0.1235,-0.1267,-0.13,-0.1333,-0.136,-0.1408,-0.1434,-0.1437,-0.15,-0.151,-0.1562,-0.1582,-0.1582,-0.1589,-0.1577,-0.1651,-0.1659,-0.1666,-0.1671,-0.1679,-0.158,-0.158,-0.1579,-0.1579,0,-0.1127,-0.1177,-0.1195,-0.1259,-0.1295,-0.1329,-0.1379,-0.142,-0.1455,-0.148,-0.1545,-0.1565,-0.1601,-0.1619,-0.1615,-0.1678,-0.1663,-0.1658,-0.1632,-0.1682,-0.1683,-0.169,-0.1585,-0.1584,-0.1583,-0.1582,0,0,-0.1058,-0.1185,-0.1189,-0.1242,-0.1318,-0.1347,-0.1409,-0.1469,-0.1518,-0.1559,-0.1622,-0.166,-0.1674,-0.1685,-0.1699,-0.1731,-0.1791,-0.172,-0.172,-0.1728,-0.1856,-0.171,-0.1703,-0.1808,-0.1809,-0.1811,-0.1836,0,-0.1055,-0.1141,-0.1202,-0.1278,-0.1326,-0.1396,-0.1452,-0.1514,-0.1566,-0.1632,-0.1666,-0.172,-0.1698,-0.1735,-0.1762,-0.179,-0.1813,-0.1783,-0.1802,-0.1802,-0.1669,-0.1708,-0.1816,-0.1841,-0.1843,-0.1844,-0.1845,0,-0.1033,-0.1106,-0.1187,-0.1321,-0.1346,-0.1397,-0.1505,-0.1559,-0.1651,-0.17,-0.1755,-0.178,-0.1835,-0.1815,-0.1866,-0.1851,-0.1854,-0.1864,-0.1865,-0.1706,-0.1669,-0.178,-0.1857,-0.1856,-0.1855,-0.1854,-0.1854,0,-0.0956,-0.1089,-0.1161,-0.1203,-0.1346,-0.1405,-0.1476,-0.1577,-0.1634,-0.1745,-0.18,-0.1855,-0.1898,-0.1917,-0.1913,-0.1908,-0.1958,-0.1954,-0.182,-0.1809,-0.1903,-0.1894,-0.1987,-0.1987,-0.1987,-0.1987,-0.1987,0,-0.0919,-0.0976,-0.1143,-0.1178,-0.1275,-0.1382,-0.1478,-0.1563,-0.1677,-0.1738,-0.1823,-0.1869,-0.1929,-0.1953,-0.1944,-0.1884,-0.1976,-0.1821,-0.1808,-0.1931,-0.1925,-0.1908,-0.1898,-0.1988,-0.1987,-0.1987,-0.1987,0,-0.0812,-0.0926,-0.101,-0.1176,-0.1242,-0.1299,-0.1477,-0.1539,-0.1662,-0.1753,-0.1791,-0.1893,-0.1915,-0.1941,-0.1975,-0.1905,-0.1882,-0.1839,-0.1955,-0.1948,-0.1706,-0.17,-0.1699,-0.1694,-0.169,-0.1687,-0.1684,0,-0.0777,-0.0806,-0.0974,-0.1047,-0.1131,-0.1257,-0.1347,-0.1507,-0.1577,-0.1739,-0.1767,-0.184,-0.1883,-0.1803,-0.1846,-0.181,-0.1784,-0.1765,-0.174,-0.169,-0.1678,-0.1679,-0.1678,-0.1677,-0.1676,-0.1675,-0.1674,0,-0.068,-0.0725,-0.0783,-0.0937,-0.1054,-0.118,-0.1325,-0.1371,-0.1539,-0.1658,-0.1691,-0.1696,-0.1715,-0.1707,-0.1685,-0.1662,-0.1777,-0.1721,-0.1729,-0.1706,-0.1663,-0.1656,-0.166,-0.166,-0.1662,-0.1663,-0.1664,0,-0.0589,-0.0584,-0.0674,-0.0807,-0.0957,-0.1084,-0.1177,-0.1282,-0.1366,-0.1549,-0.1542,-0.1617,-0.1693,-0.1629,-0.1612,-0.157,-0.1548,-0.1499,-0.1519,-0.1536,-0.1466,-0.1388,-0.1285,0,0,0,0,0,-0.0504,-0.0491,-0.0573,-0.0717,-0.0868,-0.0975,-0.116,-0.1254,-0.1417,-0.1393,-0.1467,-0.1471,-0.1449,-0.1483,-0.1403,-0.1538,-0.1556,-0.1441,-0.1513,-0.158,-0.1596,-0.1528,0,0,0,0,0,0,-0.0446,-0.0471,-0.0504,-0.0632,-0.0726,-0.0888,-0.1005,-0.1124,-0.1131,-0.1277,-0.1265,-0.1357,-0.135,-0.1449,-0.1357,-0.1367,-0.1379,-0.1483,-0.1478,-0.157,-0.1585,-0.1599,-0.1534,0,0,0,0,0]},{"header":{"parameterUnit":"m.s-1","parameterCategory":2,"la1":30.2991,"la2":30.254,"lo1":-89.0895,"lo2":-89.0444,"dy":0.0017,"dx":0.0017,"nx":28,"ny":28,"refTime":"2024-10-09T03:00:00:Z","depth":"4","parameterNumber":3,"parameterNumberName":"V-component_of_CURRENTS"},"data":[0,0,0,0,0,0,0,0,0,0,0,0,0,0,0,0,0,0,0,0,0,0,0,0,0,0,0,0,0,0,0,0,0,0,0,0,0,0,0,0,0,0,0,0,0,0,0,0,0,0,0,0,0,0,0,0,0,0,0.0028,0.0029,0,0.0063,0.0063,0.0064,0.0085,0.0085,0.0085,0.0085,0.0146,0.0147,0.0149,0,0,0,0,0,0,0,0,0,0,0,0,0,0.0022,0.0022,0.0028,0.0029,0.0029,0.0063,0.0063,0.0064,0.0085,0.0085,0.0085,0.0085,0.0145,0.0147,0.0149,0,0,0,0,0,0,0,0,0,0,0,0,0,0.0037,0.0022,0.0028,0.0044,0.0045,0.0063,0.0063,0.0064,0.0084,0.0085,0.0085,0.0085,0.0145,0.0147,0.0149,0.016,0,0,0.0156,0.0157,0,0,0,0,0,0,0,0,0.0037,0.0038,0.0041,0.0042,0.0044,0.007,0.0084,0.0097,0.0084,0.0069,0.0085,0.0085,0.0123,0.0127,0.0133,0.0163,0.0166,0.0156,0.0158,0.0159,0.0159,0,0,0,0,0,0,0,0.0035,0.0037,0.0042,0.0041,0.0044,0.0063,0.0065,0.0086,0.0095,0.0071,0.0072,0.0076,0.0124,0.013,0.0134,0.0166,0.0156,0.0158,0.016,0.0161,0.0213,0.0213,0,0,0,0,0,0,0.0029,0.0035,0.0041,0.0043,0.0041,0.0063,0.0065,0.0061,0.0094,0.0099,0.0076,0.0077,0.0126,0.0131,0.0136,0.0148,0.0159,0.0161,0.0162,0.0213,0.0213,0.0213,0,0,0,0,0,0,0.0028,0.0029,0.0039,0.0041,0.0043,0.0063,0.0058,0.0062,0.0069,0.0098,0.0104,0.008,0.0127,0.0133,0.0154,0.0151,0.0162,0.0164,0.0213,0.0213,0.0213,0.0173,0,0,0,0,0,0,0.0028,0.0028,0.0026,0.004,0.0043,0.0046,0.0058,0.0062,0.0071,0.0073,0.0103,0.0109,0.0127,0.0151,0.0156,0.0154,0.0166,0.0213,0.0213,0.0213,0.0175,0.0172,0.017,0,0,0,0,0,0.0027,0.0021,0.0025,0.0026,0.0038,0.0046,0.0049,0.0064,0.0071,0.0072,0.0093,0.0108,0.0155,0.0152,0.0159,0.0157,0.0213,0.0213,0.0213,0.0176,0.0173,0.017,0,0,0,0,0,0,0.0027,0.0023,0.0028,0.0023,0.0033,0.0049,0.0052,0.0063,0.008,0.0081,0.011,0.0117,0.0133,0.0153,0.0149,0.0173,0.0186,0.0188,0.0155,0.0153,0.015,0.0139,0.0168,0,0,0,0,0,0.0023,0.0011,0.002,0.0018,0.0019,0.0036,0.0042,0.005,0.0066,0.0074,0.0095,0.0118,0.0138,0.0151,0.017,0.0186,0.021,0.0189,0.0187,0.0185,0.0181,0.022,0.0221,0.0213,0.0213,0.0213,0,0,0.0027,0.0021,0.0018,0.0017,0.0024,0.0018,0.004,0.0044,0.0042,0.0078,0.0085,0.011,0.014,0.0154,0.0163,0.0171,0.0199,0.0185,0.0182,0.018,0.022,0.0221,0.0222,0.0213,0.0213,0.0213,0,0,0.0016,0.0017,-0.0001,-0.0001,0.0001,0.0009,0.0008,0.0021,0.003,0.0042,0.0066,0.009,0.0119,0.014,0.0155,0.0153,0.0183,0.0159,0.014,0.0178,0.0179,0.018,0.0206,0.021,0.0159,0.0159,0.0159,0,0.0023,-0.0007,0.0,-0.0019,-0.0025,0.0001,-0.0017,-0.0002,0.0018,0.0024,0.0038,0.0084,0.0112,0.0133,0.0132,0.0147,0.017,0.0146,0.0174,0.0176,0.0178,0.0204,0.0209,0.0157,0.0158,0.0158,0.0158,0,-0.0001,-0.0029,-0.0038,-0.0061,-0.0061,-0.0071,-0.0058,-0.0052,-0.0036,-0.0018,0.0007,0.0049,0.0076,0.0091,0.0111,0.0135,0.0147,0.0165,0.0179,0.0176,0.0204,0.021,0.0155,0.0155,0.0156,0.0156,0,0,0.002,-0.0046,-0.0049,-0.0085,-0.009,-0.0099,-0.0098,-0.0094,-0.0096,-0.0058,-0.0052,-0.0005,0.0024,0.0043,0.0078,0.0115,0.0148,0.0141,0.0144,0.0162,0.0225,0.0215,0.0221,0.0172,0.0173,0.0174,0.0238,0,-0.0002,-0.0067,-0.0084,-0.0138,-0.0173,-0.0162,-0.0168,-0.0157,-0.0132,-0.0115,-0.0058,-0.0036,0.0004,0.0018,0.0062,0.0124,0.0162,0.0129,0.023,0.0233,0.0221,0.0226,0.0176,0.0242,0.0244,0.0244,0.0245,0,-0.0015,-0.0071,-0.0134,-0.021,-0.022,-0.0241,-0.0253,-0.0252,-0.0213,-0.0192,-0.0148,-0.01,-0.0043,-0.0005,0.0103,0.0079,0.0146,0.02,0.0205,0.0212,0.0233,0.0249,0.0256,0.0255,0.0254,0.0253,0.0253,0,-0.0013,-0.0103,-0.0164,-0.0185,-0.025,-0.0275,-0.0295,-0.0276,-0.0281,-0.0235,-0.0224,-0.0147,-0.0105,-0.0013,0.0104,0.0103,0.0228,0.0241,0.0296,0.0296,0.0303,0.0302,0.0321,0.0321,0.0321,0.032,0.032,0,-0.0029,-0.0078,-0.018,-0.0211,-0.0293,-0.0312,-0.0358,-0.0357,-0.0343,-0.0344,-0.0266,-0.0236,-0.0103,-0.0011,0.009,0.0208,0.022,0.0291,0.0314,0.0284,0.028,0.0307,0.0305,0.0323,0.0322,0.0322,0.0321,0,-0.0004,-0.0068,-0.015,-0.0251,-0.0297,-0.0343,-0.0423,-0.0445,-0.0421,-0.0416,-0.0403,-0.03,-0.018,-0.0046,0.0113,0.0184,0.0301,0.0344,0.0296,0.0314,0.0344,0.0339,0.0397,0.0397,0.0398,0.0398,0.0398,0,-0.0003,-0.0043,-0.0174,-0.0251,-0.0307,-0.0394,-0.0457,-0.048,-0.0496,-0.0449,-0.0443,-0.033,-0.0247,-0.0029,0.0108,0.0291,0.0322,0.0371,0.0363,0.0337,0.0353,0.0348,0.0342,0.0398,0.0398,0.0398,0.0398,0,-0.0002,-0.0032,-0.0093,-0.0249,-0.0353,-0.0469,-0.0552,-0.0572,-0.0572,-0.0552,-0.0463,-0.0341,-0.0203,-0.003,0.0116,0.0249,0.0328,0.0374,0.0374,0.0366,0.0339,0.0354,0.0348,0.0399,0.0399,0.0399,0.0399,0,0.0012,-0.0018,-0.0105,-0.0238,-0.0386,-0.0517,-0.0562,-0.0592,-0.0605,-0.0544,-0.0511,-0.0349,-0.0249,-0.0051,0.0084,0.021,0.0238,0.0269,0.0275,0.0276,0.0222,0.0169,0.0194,0,0,0,0,0,0.0015,-0.0009,-0.0116,-0.0276,-0.0424,-0.0517,-0.062,-0.0644,-0.0644,-0.0585,-0.0546,-0.041,-0.0194,-0.0092,0.0033,0.007,0.0243,0.0217,0.0277,0.0402,0.0402,0.0358,0,0,0,0,0,0,0.0013,-0.0043,-0.0084,-0.0283,-0.0406,-0.0572,-0.0643,-0.0652,-0.0611,-0.0574,-0.0452,-0.0382,-0.0167,-0.0253,0.0042,0.0079,0.013,0.0324,0.0326,0.0403,0.0402,0.0402,0.0357,0,0,0,0,0]}]]